When you browse on this site, cookies collect data to enhance your experience and personalize the content and advertising you see.
Visit our Privacy Policy to learn more. By continuing to use the site, you agree to this use of cookies and data.
  • In Hungary
  • List of Countries
  • For 7 days
  • Water Temperature
  • Weather Map
  • News
  • Weather Widgets
  • user-avatar
    Login

    Hourly Weather La Paz

    Today, 14 November, Thursday

    Time Temperature Precipitation Wind Pressure Humidity
    00:00 +23°C° 0 mm 1 mps 759 mmHg 72%
    01:00 +23°C° 0 mm 1 mps 759 mmHg 74%
    02:00 +22°C° 0 mm 1 mps 758 mmHg 77%
    03:00 +22°C° 0 mm 1 mps 758 mmHg 78%
    04:00 +22°C° 0 mm 1 mps 758 mmHg 79%
    05:00 +21°C° 0 mm 1 mps 758 mmHg 79%
    06:00 +23°C° 0 mm 1 mps 759 mmHg 73%
    07:00 +24°C° 0 mm 1 mps 759 mmHg 66%
    08:00 +25°C° 0 mm 1 mps 760 mmHg 59%
    09:00 +27°C° 0 mm 1 mps 760 mmHg 53%
    10:00 +28°C° 0 mm 2 mps 760 mmHg 48%
    11:00 +29°C° 0 mm 2 mps 761 mmHg 42%
    12:00 +30°C° 0 mm 3 mps 760 mmHg 41%
    13:00 +30°C° 0 mm 3 mps 759 mmHg 41%
    14:00 +30°C° 0 mm 4 mps 758 mmHg 41%
    15:00 +29°C° 0 mm 4 mps 758 mmHg 45%
    16:00 +28°C° 0 mm 4 mps 758 mmHg 49%
    17:00 +27°C° 0 mm 4 mps 758 mmHg 53%
    18:00 +26°C° 0 mm 4 mps 758 mmHg 57%
    19:00 +25°C° 0 mm 3 mps 759 mmHg 61%
    20:00 +24°C° 0 mm 2 mps 759 mmHg 65%
    21:00 +24°C° 0 mm 2 mps 759 mmHg 67%
    22:00 +23°C° 0 mm 1 mps 759 mmHg 68%
    23:00 +23°C° 0 mm 1 mps 759 mmHg 70%

    Tomorrow, 15 November, Friday

    Time Temperature Precipitation Wind Pressure Humidity
    00:00 +22°C° 0 mm 1 mps 759 mmHg 70%
    01:00 +22°C° 0 mm 1 mps 759 mmHg 71%
    02:00 +22°C° 0 mm 1 mps 759 mmHg 71%
    03:00 +21°C° 0 mm 1 mps 759 mmHg 72%
    04:00 +21°C° 0 mm 1 mps 758 mmHg 72%
    05:00 +21°C° 0 mm 1 mps 758 mmHg 73%
    06:00 +22°C° 0 mm 1 mps 759 mmHg 67%
    07:00 +24°C° 0 mm 1 mps 759 mmHg 62%
    08:00 +25°C° 0 mm 1 mps 760 mmHg 56%
    09:00 +27°C° 0 mm 2 mps 760 mmHg 52%
    10:00 +28°C° 0 mm 2 mps 760 mmHg 48%
    11:00 +29°C° 0 mm 3 mps 760 mmHg 44%
    12:00 +30°C° 0 mm 3 mps 759 mmHg 43%
    13:00 +30°C° 0 mm 3 mps 758 mmHg 42%
    14:00 +30°C° 0 mm 3 mps 758 mmHg 41%
    15:00 +29°C° 0 mm 3 mps 758 mmHg 46%
    16:00 +28°C° 0 mm 3 mps 757 mmHg 51%
    17:00 +28°C° 0 mm 3 mps 757 mmHg 56%
    18:00 +26°C° 0 mm 2 mps 757 mmHg 62%
    19:00 +25°C° 0 mm 1 mps 758 mmHg 67%
    20:00 +24°C° 0 mm 1 mps 758 mmHg 73%
    21:00 +24°C° 0 mm 1 mps 758 mmHg 74%
    22:00 +23°C° 0 mm 1 mps 758 mmHg 75%
    23:00 +21°C° 0 mm 0 mps 758 mmHg 76%

    Day after tomorrow, 16 November, Saturday

    Time Temperature Precipitation Wind Pressure Humidity
    00:00 +22°C° 0 mm 1 mps 758 mmHg 77%
    01:00 +22°C° 0 mm 1 mps 757 mmHg 78%
    02:00 +21°C° 0 mm 1 mps 757 mmHg 79%
    03:00 +21°C° 0 mm 1 mps 757 mmHg 80%
    04:00 +19°C° 0 mm 0 mps 757 mmHg 80%
    05:00 +19°C° 0 mm 0 mps 757 mmHg 80%
    06:00 +20°C° 0 mm 0 mps 757 mmHg 73%
    07:00 +22°C° 0 mm 0 mps 758 mmHg 66%
    08:00 +25°C° 0 mm 1 mps 758 mmHg 59%
    09:00 +27°C° 0 mm 1 mps 758 mmHg 54%
    10:00 +28°C° 0 mm 1 mps 758 mmHg 49%
    11:00 +30°C° 0 mm 1 mps 758 mmHg 44%
    12:00 +29°C° 0 mm 2 mps 758 mmHg 47%
    13:00 +29°C° 0 mm 2 mps 757 mmHg 51%
    14:00 +28°C° 0 mm 3 mps 756 mmHg 54%
    15:00 +28°C° 0.7 mm 2 mps 756 mmHg 57%
    16:00 +28°C° 0.7 mm 2 mps 756 mmHg 60%
    17:00 +27°C° 0.7 mm 2 mps 756 mmHg 63%
    18:00 +27°C° 0.2 mm 2 mps 756 mmHg 66%
    19:00 +26°C° 0.2 mm 1 mps 757 mmHg 69%
    20:00 +25°C° 0.2 mm 1 mps 757 mmHg 72%
    21:00 +25°C° 0 mm 1 mps 757 mmHg 72%
    22:00 +25°C° 0 mm 1 mps 757 mmHg 73%
    23:00 +25°C° 0 mm 1 mps 757 mmHg 73%

    17 November, Sunday

    Time Temperature Precipitation Wind Pressure Humidity
    00:00 +25°C° 0 mm 1 mps 756 mmHg 72%
    01:00 +25°C° 0 mm 1 mps 756 mmHg 70%
    02:00 +26°C° 0 mm 1 mps 756 mmHg 69%
    03:00 +26°C° 0 mm 1 mps 756 mmHg 69%
    04:00 +26°C° 0 mm 1 mps 756 mmHg 69%
    05:00 +26°C° 0 mm 1 mps 756 mmHg 70%
    06:00 +26°C° 0 mm 2 mps 757 mmHg 69%
    07:00 +26°C° 0 mm 2 mps 757 mmHg 68%
    08:00 +27°C° 0 mm 3 mps 757 mmHg 67%
    09:00 +28°C° 0 mm 4 mps 757 mmHg 64%
    10:00 +28°C° 0 mm 4 mps 757 mmHg 62%
    11:00 +29°C° 0 mm 5 mps 757 mmHg 60%
    12:00 +30°C° 0 mm 5 mps 757 mmHg 60%
    13:00 +30°C° 0 mm 5 mps 756 mmHg 60%
    14:00 +30°C° 0 mm 5 mps 756 mmHg 59%
    15:00 +29°C° 0 mm 6 mps 756 mmHg 63%
    16:00 +28°C° 0 mm 6 mps 756 mmHg 66%
    17:00 +27°C° 0 mm 7 mps 756 mmHg 69%
    18:00 +27°C° 0 mm 6 mps 756 mmHg 72%
    19:00 +26°C° 0 mm 5 mps 756 mmHg 75%
    20:00 +26°C° 0 mm 5 mps 757 mmHg 77%
    21:00 +26°C° 0 mm 4 mps 757 mmHg 78%
    22:00 +25°C° 0 mm 4 mps 757 mmHg 79%
    23:00 +25°C° 0 mm 3 mps 757 mmHg 79%

    18 November, Monday

    Time Temperature Precipitation Wind Pressure Humidity
    00:00 +25°C° 0 mm 4 mps 757 mmHg 80%
    01:00 +25°C° 0 mm 4 mps 757 mmHg 80%
    02:00 +25°C° 0 mm 4 mps 757 mmHg 81%
    03:00 +25°C° 0 mm 4 mps 757 mmHg 81%
    04:00 +25°C° 0 mm 5 mps 756 mmHg 82%
    05:00 +25°C° 0 mm 5 mps 756 mmHg 82%
    06:00 +25°C° 0 mm 5 mps 757 mmHg 79%
    07:00 +26°C° 0 mm 5 mps 757 mmHg 76%
    08:00 +26°C° 0 mm 5 mps 757 mmHg 74%
    09:00 +27°C° 0 mm 5 mps 757 mmHg 68%
    10:00 +28°C° 0 mm 6 mps 757 mmHg 63%
    11:00 +29°C° 0 mm 6 mps 757 mmHg 58%
    12:00 +29°C° 0 mm 6 mps 757 mmHg 58%
    13:00 +29°C° 0 mm 6 mps 756 mmHg 58%
    14:00 +29°C° 0 mm 6 mps 755 mmHg 58%
    15:00 +28°C° 0 mm 6 mps 755 mmHg 61%
    16:00 +27°C° 0 mm 6 mps 755 mmHg 64%
    17:00 +27°C° 0 mm 6 mps 755 mmHg 68%
    18:00 +26°C° 0 mm 6 mps 756 mmHg 72%
    19:00 +25°C° 0 mm 5 mps 756 mmHg 76%
    20:00 +23°C° 0 mm 4 mps 756 mmHg 80%
    21:00 +23°C° 0 mm 4 mps 756 mmHg 79%
    22:00 +23°C° 0 mm 4 mps 756 mmHg 78%
    23:00 +22°C° 0 mm 4 mps 756 mmHg 77%

    19 November, Tuesday

    Time Temperature Precipitation Wind Pressure Humidity
    00:00 +22°C° 0 mm 4 mps 756 mmHg 76%
    01:00 +22°C° 0 mm 3 mps 756 mmHg 75%
    02:00 +22°C° 0 mm 3 mps 756 mmHg 75%
    03:00 +22°C° 0 mm 3 mps 756 mmHg 74%
    04:00 +22°C° 0 mm 3 mps 756 mmHg 73%
    05:00 +22°C° 0 mm 3 mps 756 mmHg 73%
    06:00 +24°C° 0 mm 2 mps 756 mmHg 68%
    07:00 +25°C° 0 mm 2 mps 756 mmHg 64%
    08:00 +25°C° 0 mm 2 mps 757 mmHg 60%
    09:00 +27°C° 0 mm 2 mps 757 mmHg 54%
    10:00 +28°C° 0 mm 3 mps 757 mmHg 47%
    11:00 +30°C° 0 mm 3 mps 757 mmHg 41%
    12:00 +30°C° 0 mm 3 mps 757 mmHg 42%
    13:00 +30°C° 0 mm 3 mps 756 mmHg 43%
    14:00 +30°C° 0 mm 4 mps 756 mmHg 45%
    15:00 +29°C° 0 mm 3 mps 755 mmHg 47%
    16:00 +28°C° 0 mm 3 mps 755 mmHg 49%
    17:00 +27°C° 0 mm 2 mps 755 mmHg 51%
    18:00 +26°C° 0 mm 2 mps 756 mmHg 54%
    19:00 +26°C° 0 mm 1 mps 756 mmHg 57%
    20:00 +23°C° 0 mm 0 mps 756 mmHg 60%
    21:00 +23°C° 0 mm 0 mps 756 mmHg 59%
    22:00 +23°C° 0 mm 0 mps 756 mmHg 58%
    23:00 +24°C° 0 mm 1 mps 756 mmHg 57%
    Show more